Time,TemperatureF,DewpointF,PressureIn,WindDirection,WindDirectionDegrees,WindSpeedMPH,WindSpeedGustMPH,Humidity,HourlyPrecipIn,Conditions,Clouds,dailyrainin,SoftwareType,DateUTC
2019-08-19 00:02:02,57,52.2,29.48,East,90,0,8,84,0,,,0,meteohub,2019-08-18 23:02:02,
2019-08-19 00:12:28,56.8,52,29.51,East,90,0,9,84,0,,,0,meteohub,2019-08-18 23:12:28,
2019-08-19 00:22:54,56.7,51.8,29.51,East,90,0,9,84,0,,,0,meteohub,2019-08-18 23:22:54,
2019-08-19 00:33:18,56.7,51.8,29.51,East,90,0,0,84,0,,,0,meteohub,2019-08-18 23:33:18,
2019-08-19 00:43:49,56.3,51.4,29.51,East,90,0,0,84,0,,,0,meteohub,2019-08-18 23:43:49,
2019-08-19 00:54:14,56.1,51.4,29.51,East,90,0,0,84,0,,,0,meteohub,2019-08-18 23:54:14,
2019-08-19 01:04:41,55.9,51.4,29.51,East,90,0,7,84,0,,,0,meteohub,2019-08-19 00:04:41,
2019-08-19 01:15:13,55.9,51.4,29.51,East,90,0,0,85,0,,,0,meteohub,2019-08-19 00:15:13,
2019-08-19 01:25:37,55.9,51.4,29.51,East,90,0,7,85,0,,,0,meteohub,2019-08-19 00:25:37,
2019-08-19 01:36:06,55.8,51.3,29.51,East,90,0,0,85,0,,,0,meteohub,2019-08-19 00:36:06,
2019-08-19 01:46:28,55.8,51.3,29.51,East,90,0,15,85,0,,,0,meteohub,2019-08-19 00:46:28,
2019-08-19 01:56:55,55.8,51.3,29.51,East,90,0,7,85,0,,,0,meteohub,2019-08-19 00:56:55,
2019-08-19 02:07:27,55.8,51.3,29.51,East,90,0,12,85,0,,,0,meteohub,2019-08-19 01:07:27,
2019-08-19 02:17:51,55.8,51.3,29.51,East,90,0,8,85,0,,,0,meteohub,2019-08-19 01:17:51,
2019-08-19 02:28:20,55.8,51.3,29.51,East,90,0,11,85,0,,,0,meteohub,2019-08-19 01:28:20,
2019-08-19 02:38:45,55.8,51.3,29.51,East,90,0,11,85,0,,,0,meteohub,2019-08-19 01:38:45,
2019-08-19 02:49:07,55.8,51.3,29.51,East,90,0,9,85,0,,,0,meteohub,2019-08-19 01:49:07,
2019-08-19 02:59:22,55.8,51.3,29.51,East,90,0,11,85,0,,,0,meteohub,2019-08-19 01:59:22,
2019-08-19 03:09:50,55.8,51.3,29.51,East,90,0,8,85,0,,,0,meteohub,2019-08-19 02:09:50,
2019-08-19 03:20:20,55.6,51.1,29.51,East,90,0,7,85,0,,,0,meteohub,2019-08-19 02:20:20,
2019-08-19 03:30:43,55.4,50.9,29.51,East,90,0,0,85,0,,,0,meteohub,2019-08-19 02:30:43,
2019-08-19 03:40:57,55.4,50.9,29.51,East,90,0,11,85,0,,,0,meteohub,2019-08-19 02:40:57,
2019-08-19 03:51:18,55.2,50.7,29.51,East,90,0,11,85,0,,,0,meteohub,2019-08-19 02:51:18,
2019-08-19 04:01:45,55.2,50.7,29.51,East,90,0,11,85,0,,,0,meteohub,2019-08-19 03:01:45,
2019-08-19 04:12:07,55.2,50.7,29.54,East,90,0,11,85,0,,,0,meteohub,2019-08-19 03:12:07,
2019-08-19 04:22:30,55.2,50.7,29.54,East,90,0,11,85,0,,,0,meteohub,2019-08-19 03:22:30,
2019-08-19 04:32:54,55.2,50.7,29.54,East,90,0,12,85,0,,,0,meteohub,2019-08-19 03:32:54,
2019-08-19 04:43:15,55.2,50.7,29.54,East,90,0,12,85,0,,,0,meteohub,2019-08-19 03:43:15,
2019-08-19 04:53:41,55,50.5,29.54,East,90,0,11,85,0,,,0,meteohub,2019-08-19 03:53:41,
2019-08-19 05:04:14,55.2,50.7,29.54,East,90,0,11,85,0,,,0,meteohub,2019-08-19 04:04:14,
2019-08-19 05:14:46,55.2,50.7,29.54,East,90,0,11,85,0,,,0,meteohub,2019-08-19 04:14:46,
2019-08-19 05:25:24,55,50.5,29.54,East,90,0,8,85,0,,,0,meteohub,2019-08-19 04:25:24,
2019-08-19 05:35:59,55,50.5,29.54,East,90,0,7,85,0,,,0,meteohub,2019-08-19 04:35:59,
2019-08-19 05:46:39,55,50.5,29.54,East,90,0,13,85,0,,,0,meteohub,2019-08-19 04:46:39,
2019-08-19 05:57:16,55,50.5,29.54,East,90,0,12,85,0,,,0,meteohub,2019-08-19 04:57:16,
2019-08-19 06:07:54,55,50.5,29.54,East,90,0,9,85,0,,,0,meteohub,2019-08-19 05:07:54,
2019-08-19 06:17:55,55.2,50.7,29.54,East,90,0,0,85,0,,,0,meteohub,2019-08-19 05:17:55,
2019-08-19 06:27:58,55.2,50.7,29.54,East,90,0,0,85,0,,,0,meteohub,2019-08-19 05:27:58,
2019-08-19 06:37:59,55.4,50.9,29.54,East,90,0,9,85,0,,,0,meteohub,2019-08-19 05:37:59,
2019-08-19 06:48:24,55.6,51.1,29.54,East,90,0,9,85,0,,,0,meteohub,2019-08-19 05:48:24,
2019-08-19 06:58:34,55.9,51.4,29.54,East,90,0,9,85,0,,,0,meteohub,2019-08-19 05:58:34,
2019-08-19 07:09:12,56.1,51.6,29.57,East,90,0,9,85,0,,,0,meteohub,2019-08-19 06:09:12,
2019-08-19 07:19:16,56.3,51.8,29.57,East,90,0,24,85,0,,,0,meteohub,2019-08-19 06:19:16,
2019-08-19 07:29:52,56.7,52.2,29.57,East,90,0,24,85,0,,,0,meteohub,2019-08-19 06:29:52,
2019-08-19 07:40:32,56.8,52.3,29.57,East,90,0,7,85,0,,,0,meteohub,2019-08-19 06:40:32,
2019-08-19 07:51:09,57.6,53.1,29.57,East,90,0,11,85,0,,,0,meteohub,2019-08-19 06:51:09,
2019-08-19 08:01:13,58.1,53.2,29.57,East,90,0,11,84,0,,,0,meteohub,2019-08-19 07:01:13,
2019-08-19 08:11:15,58.3,53.4,29.57,East,90,0,12,84,0,,,0,meteohub,2019-08-19 07:11:15,
2019-08-19 08:21:52,58.5,54,29.57,East,90,0,12,85,0,,,0,meteohub,2019-08-19 07:21:52,
2019-08-19 08:31:53,58.8,54,29.57,East,90,0,9,84,0,,,0,meteohub,2019-08-19 07:31:53,
2019-08-19 08:42:30,59.2,54.3,29.57,East,90,0,8,84,0,,,0,meteohub,2019-08-19 07:42:30,
2019-08-19 08:52:35,59.5,54.7,29.57,East,90,0,9,84,0,,,0,meteohub,2019-08-19 07:52:35,
2019-08-19 09:02:41,59.9,54.7,29.57,East,90,0,11,83,0,,,0,meteohub,2019-08-19 08:02:41,
2019-08-19 09:12:46,60.6,55.4,29.57,East,90,0,11,83,0,,,0,meteohub,2019-08-19 08:12:46,
2019-08-19 09:23:23,61.5,55.6,29.57,East,90,0,11,81,0,,,0,meteohub,2019-08-19 08:23:23,
2019-08-19 09:33:32,61.9,55.6,29.57,East,90,0,9,80,0,,,0,meteohub,2019-08-19 08:33:32,
2019-08-19 09:44:09,62.2,55.8,29.60,East,90,0,9,79,0,,,0,meteohub,2019-08-19 08:44:09,
2019-08-19 09:54:14,62.8,55.8,29.60,East,90,0,11,78,0,,,0,meteohub,2019-08-19 08:54:14,
2019-08-19 10:04:21,63.5,55.6,29.60,East,90,0,15,75,0,,,0,meteohub,2019-08-19 09:04:21,
2019-08-19 10:15:01,64.4,55.9,29.60,East,90,0,11,74,0,,,0,meteohub,2019-08-19 09:15:01,
2019-08-19 10:25:06,64.4,55.2,29.60,East,90,0,12,72,0,,,0,meteohub,2019-08-19 09:25:06,
2019-08-19 10:35:07,64,55.6,29.60,East,90,0,0,74,0,,,0,meteohub,2019-08-19 09:35:07,
2019-08-19 10:45:12,63.5,54.7,29.60,East,90,0,9,73,0,,,0,meteohub,2019-08-19 09:45:12,
2019-08-19 10:55:19,63.7,54.9,29.60,East,90,0,15,73,0,,,0,meteohub,2019-08-19 09:55:19,
2019-08-19 11:05:21,64.2,55.4,29.60,East,90,0,15,73,0,,,0,meteohub,2019-08-19 10:05:21,
2019-08-19 11:16:01,64.8,54.5,29.60,East,90,0,9,69,0,,,0,meteohub,2019-08-19 10:16:01,
2019-08-19 11:26:38,65.1,55.4,29.60,East,90,0,12,71,0,,,0,meteohub,2019-08-19 10:26:38,
2019-08-19 11:36:43,65.3,55,29.60,East,90,0,11,69,0,,,0,meteohub,2019-08-19 10:36:43,
2019-08-19 11:47:20,65.7,54.3,29.60,East,90,0,12,67,0,,,0,meteohub,2019-08-19 10:47:20,
2019-08-19 11:57:24,66.9,54.9,29.60,East,90,0,11,65,0,,,0,meteohub,2019-08-19 10:57:24,
2019-08-19 12:08:03,67.8,56.7,29.60,East,90,0,0,67,0,,,0,meteohub,2019-08-19 11:08:03,
2019-08-19 12:18:37,67.1,54.9,29.60,East,90,0,0,65,0,,,0,meteohub,2019-08-19 11:18:37,
2019-08-19 12:29:17,66.6,54.9,29.60,East,90,0,0,66,0,,,0,meteohub,2019-08-19 11:29:17,
2019-08-19 12:39:34,65.1,55.9,29.60,East,90,0,17,72,0,,,0,meteohub,2019-08-19 11:39:34,
2019-08-19 12:49:35,63.1,57,29.63,East,90,0,17,80,0,,,0,meteohub,2019-08-19 11:49:35,
2019-08-19 13:00:18,63.7,58.8,29.63,East,90,0,17,84,0,,,0,meteohub,2019-08-19 12:00:18,
2019-08-19 13:10:21,64,58.3,29.63,East,90,0,11,81,0,,,0,meteohub,2019-08-19 12:10:21,
2019-08-19 13:20:22,65.1,59,29.63,East,90,0,11,80,0,,,0,meteohub,2019-08-19 12:20:22,
2019-08-19 13:31:02,65.8,58.6,29.63,East,90,0,8,77,0,,,0,meteohub,2019-08-19 12:31:02,
2019-08-19 13:41:38,67.6,57.9,29.63,East,90,0,28,71,0,,,0,meteohub,2019-08-19 12:41:38,
2019-08-19 13:51:39,67.8,59,29.63,East,90,0,9,73,0.05,,,0.05,meteohub,2019-08-19 12:51:39,
2019-08-19 14:01:52,64.8,58.8,29.63,East,90,0,9,81,0.06,,,0.06,meteohub,2019-08-19 13:01:52,
2019-08-19 14:12:29,63,58.5,29.63,East,90,0,0,85,0.06,,,0.06,meteohub,2019-08-19 13:12:29,
2019-08-19 14:23:04,63.3,58.8,29.63,East,90,0,9,85,0.06,,,0.06,meteohub,2019-08-19 13:23:04,
2019-08-19 14:33:10,63.3,58.8,29.63,East,90,0,9,85,0.06,,,0.06,meteohub,2019-08-19 13:33:10,
2019-08-19 14:43:13,63.5,58.6,29.63,East,90,0,11,84,0.06,,,0.06,meteohub,2019-08-19 13:43:13,
2019-08-19 14:53:52,64.2,59.4,29.63,East,90,0,11,84,0,,,0.06,meteohub,2019-08-19 13:53:52,
2019-08-19 15:04:30,64.2,59,29.63,East,90,0,8,83,0,,,0.06,meteohub,2019-08-19 14:04:30,
2019-08-19 15:15:07,64.2,58.6,29.63,East,90,0,8,82,0,,,0.06,meteohub,2019-08-19 14:15:07,
2019-08-19 15:25:17,64,57.7,29.63,East,90,0,15,80,0,,,0.06,meteohub,2019-08-19 14:25:17,
2019-08-19 15:35:27,64.6,57.6,29.66,East,90,0,13,78,0,,,0.06,meteohub,2019-08-19 14:35:27,
2019-08-19 15:46:07,64,56.7,29.66,East,90,0,29,77,0.07,,,0.14,meteohub,2019-08-19 14:46:07,
2019-08-19 15:56:23,60.6,55.6,29.66,East,90,0,16,83,0.28,,,0.35,meteohub,2019-08-19 14:56:23,
2019-08-19 16:07:01,60.6,55.6,29.66,East,90,0,0,83,0.28,,,0.35,meteohub,2019-08-19 15:07:01,
2019-08-19 16:17:39,60.6,56.5,29.66,East,90,0,9,86,0.28,,,0.35,meteohub,2019-08-19 15:17:39,
2019-08-19 16:27:45,61.5,56.8,29.66,East,90,0,0,84,0.28,,,0.35,meteohub,2019-08-19 15:27:45,
2019-08-19 16:37:56,61.9,57,29.66,East,90,0,11,84,0.28,,,0.35,meteohub,2019-08-19 15:37:56,
2019-08-19 16:48:32,62.1,56.8,29.66,East,90,0,8,83,0,,,0.35,meteohub,2019-08-19 15:48:32,
2019-08-19 16:58:36,61.5,56.7,29.66,East,90,0,11,84,0,,,0.35,meteohub,2019-08-19 15:58:36,
2019-08-19 17:08:45,61.2,56.3,29.66,East,90,0,9,84,0.01,,,0.36,meteohub,2019-08-19 16:08:45,
2019-08-19 17:19:20,61,56.1,29.66,East,90,0,0,84,0.01,,,0.36,meteohub,2019-08-19 16:19:20,
2019-08-19 17:29:23,61.2,55.9,29.66,East,90,0,9,83,0.01,,,0.36,meteohub,2019-08-19 16:29:23,
2019-08-19 17:39:32,61.3,56.1,29.66,East,90,0,8,83,0.01,,,0.36,meteohub,2019-08-19 16:39:32,
2019-08-19 17:49:47,62.1,56.8,29.66,East,90,0,12,83,0.01,,,0.36,meteohub,2019-08-19 16:49:47,
2019-08-19 17:59:54,61.9,56.7,29.66,East,90,0,9,83,0,,,0.36,meteohub,2019-08-19 16:59:54,
2019-08-19 18:09:57,61.3,56.5,29.69,East,90,0,11,84,0,,,0.36,meteohub,2019-08-19 17:09:57,
2019-08-19 18:20:33,61,56.1,29.69,East,90,0,11,84,0,,,0.36,meteohub,2019-08-19 17:20:33,
2019-08-19 18:31:13,60.6,55.8,29.69,East,90,0,9,84,0,,,0.36,meteohub,2019-08-19 17:31:13,
2019-08-19 18:41:46,60.6,56.1,29.69,East,90,0,9,85,0,,,0.36,meteohub,2019-08-19 17:41:46,
2019-08-19 18:51:51,60.6,55.9,29.69,East,90,0,9,84,0,,,0.36,meteohub,2019-08-19 17:51:51,
2019-08-19 19:01:53,60.4,55.6,29.69,East,90,0,17,84,0,,,0.36,meteohub,2019-08-19 18:01:53,
2019-08-19 19:11:58,60.1,55.2,29.69,East,90,0,17,84,0,,,0.36,meteohub,2019-08-19 18:11:58,
2019-08-19 19:22:29,59.9,55,29.69,East,90,0,13,84,0,,,0.36,meteohub,2019-08-19 18:22:29,
2019-08-19 19:32:33,59.7,55.2,29.69,East,90,0,11,85,0,,,0.36,meteohub,2019-08-19 18:32:33,
2019-08-19 19:42:37,59.7,55,29.69,East,90,0,12,84,0,,,0.36,meteohub,2019-08-19 18:42:37,
2019-08-19 19:52:36,59.4,54.5,29.69,East,90,0,12,84,0,,,0.36,meteohub,2019-08-19 18:52:36,
2019-08-19 20:02:38,59.2,54.7,29.69,East,90,0,12,85,0,,,0.36,meteohub,2019-08-19 19:02:38,
2019-08-19 20:13:17,59,54.1,29.69,East,90,0,11,84,0,,,0.36,meteohub,2019-08-19 19:13:17,
2019-08-19 20:23:21,58.8,54.3,29.69,East,90,0,7,85,0,,,0.36,meteohub,2019-08-19 19:23:21,
2019-08-19 20:33:24,58.6,54.1,29.72,East,90,0,0,85,0,,,0.36,meteohub,2019-08-19 19:33:24,
2019-08-19 20:43:32,58.3,53.8,29.72,East,90,0,7,85,0,,,0.36,meteohub,2019-08-19 19:43:32,
2019-08-19 20:53:36,58.3,53.8,29.72,East,90,0,7,85,0,,,0.36,meteohub,2019-08-19 19:53:36,
2019-08-19 21:04:12,58.1,53.6,29.72,East,90,0,12,85,0,,,0.36,meteohub,2019-08-19 20:04:12,
2019-08-19 21:14:49,58.1,54,29.72,East,90,0,12,86,0,,,0.36,meteohub,2019-08-19 20:14:49,
2019-08-19 21:25:27,57.9,53.8,29.72,East,90,0,0,86,0,,,0.36,meteohub,2019-08-19 20:25:27,
2019-08-19 21:35:28,57.9,53.6,29.72,East,90,0,0,85,0,,,0.36,meteohub,2019-08-19 20:35:28,
2019-08-19 21:46:07,57.7,53.2,29.72,East,90,0,0,85,0,,,0.36,meteohub,2019-08-19 20:46:07,
2019-08-19 21:56:45,57.7,53.2,29.72,East,90,0,0,85,0,,,0.36,meteohub,2019-08-19 20:56:45,
2019-08-19 22:06:45,57.6,53.1,29.75,East,90,0,0,85,0,,,0.36,meteohub,2019-08-19 21:06:45,
2019-08-19 22:16:45,57.4,52.9,29.75,East,90,0,0,85,0,,,0.36,meteohub,2019-08-19 21:16:45,
2019-08-19 22:27:19,57.2,52.7,29.75,East,90,0,0,85,0,,,0.36,meteohub,2019-08-19 21:27:19,
2019-08-19 22:37:27,56.8,52.3,29.75,East,90,0,0,85,0,,,0.36,meteohub,2019-08-19 21:37:27,
2019-08-19 22:48:00,56.8,52.3,29.75,East,90,0,0,85,0,,,0.36,meteohub,2019-08-19 21:48:00,
2019-08-19 22:58:38,56.5,52,29.75,East,90,0,0,85,0,,,0.36,meteohub,2019-08-19 21:58:38,
2019-08-19 23:09:15,56.5,52,29.75,East,90,0,0,85,0,,,0.36,meteohub,2019-08-19 22:09:15,
2019-08-19 23:19:54,56.3,51.4,29.75,East,90,0,0,84,0,,,0.36,meteohub,2019-08-19 22:19:54,
2019-08-19 23:30:38,56.3,51.4,29.75,East,90,0,0,84,0,,,0.36,meteohub,2019-08-19 22:30:38,
2019-08-19 23:41:15,56.1,51.4,29.75,East,90,0,0,84,0,,,0.36,meteohub,2019-08-19 22:41:15,
2019-08-19 23:51:50,55.9,51.3,29.75,East,90,0,0,84,0,,,0.36,meteohub,2019-08-19 22:51:50,